This demonstration page uses our WeatherBlox Daily Observations layout. Learn more.

Left ArrowRight Arrow

38.88101, -77.10428

Hourly Observations for December 18, 2019

Temp ( °F °C ) Dew Point ( °F °C ) Humidity (%) Winds ( mph kmh ) Pressure ( in mb ) Visibility ( mi km ) Precip ( " mm )
12:52 am 00:52 Cloudy 39 3.9 28 -2.2 65 65 NNW 20 31 29.90 1013 10 16 N/A
1:52 am 01:52 Cloudy 38 3.3 27 -2.8 65 65 NW 14 22 29.93 1013 10 16 N/A
2:52 am 02:52 Mostly Clear 37 2.8 25 -3.9 62 62 NNW 14 22 29.96 1014 10 16 N/A
3:52 am 03:52 Clear 36 2.2 23 -5 59 59 NW 15 24 29.97 1015 10 16 N/A
4:52 am 04:52 Clear 34 1.1 22 -5.6 61 61 WNW 8 13 29.98 1015 10 16 N/A
5:52 am 05:52 Clear 33 0.6 21 -6.1 61 61 WNW 10 17 30.00 1016 10 16 N/A
6:52 am 06:52 Mostly Clear 33 0.6 21 -6.1 61 61 W 6 9 30.01 1016 10 16 N/A
7:52 am 07:52 Mostly Sunny 32 undefined 22 -5.6 66 66 SW 3 6 30.01 1016 10 16 N/A
8:52 am 08:52 Mostly Sunny 35 1.7 21 -6.1 57 57 WSW 7 11 30.02 1017 10 16 N/A
9:52 am 09:52 Mostly Sunny 37 2.8 21 -6.1 52 52 SW 8 13 30.02 1017 10 16 N/A
10:52 am 10:52 Mostly Sunny 40 4.4 21 -6.1 47 47 SW 10 17 30.01 1016 10 16 N/A
11:52 am 11:52 Partly Cloudy 42 5.6 18 -7.8 38 38 W 16 26 29.98 1015 10 16 N/A
12:52 pm 12:52 Mostly Cloudy 43 6.1 19 -7.2 38 38 NW 17 28 29.97 1015 10 16 N/A
1:52 pm 13:52 Mostly Cloudy 41 5 20 -6.7 43 43 NW 14 22 29.98 1015 10 16 N/A
2:52 pm 14:52 Partly Cloudy 40 4.4 18 -7.8 41 41 NW 22 35 29.98 1015 10 16 N/A
3:52 pm 15:52 Mostly Sunny 37 2.8 18 -7.8 46 46 NW 22 35 30.03 1017 10 16 N/A
4:52 pm 16:52 Mostly Clear 35 1.7 15 -9.4 44 44 NW 18 30 30.05 1018 10 16 N/A
5:52 pm 17:52 Mostly Clear 34 1.1 14 -10 44 44 NNW 22 35 30.09 1019 10 16 N/A
6:52 pm 18:52 Mostly Clear 33 0.6 13 -10.6 43 43 W 20 31 30.11 1020 10 16 N/A
7:52 pm 19:52 Mostly Cloudy 33 0.6 12 -11.1 42 42 W 17 28 30.12 1020 10 16 N/A
8:52 pm 20:52 Cloudy 33 0.6 12 -11.1 42 42 WNW 16 26 30.14 1021 10 16 N/A
9:52 pm 21:52 Cloudy 32 undefined 19 -7.2 59 59 NNW 20 31 30.17 1022 10 16 N/A
10:52 pm 22:52 Cloudy 29 -1.7 10 -12.2 45 45 NNW 28 44 30.22 1023 10 16 N/A
11:52 pm 23:52 Partly Cloudy 27 -2.8 7 -13.9 43 43 NNW 25 41 30.24 1024 10 16 N/A

Powered by AerisWeather